Regional Weather Roundup
Issued by NWS Wilmington, NC

Home | Current Version | Previous Version | Text Only | Print | Product List | Glossary On
Versions: 1 2 3 4 5 6 7 8 9 10 11 12 13 14 15 16 17 18 19 20 21 22 23 24 25 26 27 28 29 30 31 32 33 34 35 36 37 38 39 40 41 42 43 44 45 46 47 48 49 50
000
ASUS42 KILM 311410
RWRILM
RWRILM
REGIONAL HOURLY WEATHER ROUNDUP
NATIONAL WEATHER SERVICE WILMINGTON NC
1000 AM EDT THU JUL 31 2014

NOTE: "FAIR" INDICATES FEW OR NO CLOUDS BELOW 12,000 FEET WITH NO
SIGNIFICANT WEATHER AND/OR OBSTRUCTIONS TO VISIBILITY.

...............WFO WILMINGTON COUNTY WARNING AREA...............

......COASTAL NC AND SC COUNTIES......

CITY           SKY/WX    TMP DP  RH WIND       PRES   REMARKS
WILMINGTON     CLOUDY    82  68  62 E10       30.10R
SOUTHPORT      PTSUNNY   82  69  65 E10G17    30.09S
N MYRTLE BEACH CLOUDY    81  71  71 E10       30.08R
MYRTLE BEACH   MOSUNNY   82  72  69 E12       30.07S

......INLAND NC AND SC COUNTIES.......

CITY           SKY/WX    TMP DP  RH WIND       PRES   REMARKS
LUMBERTON      CLOUDY    77  68  73 E5        30.10S
ELIZABETHTOWN  CLOUDY    75  70  85 CALM      30.11S
WHITEVILLE     CLOUDY    78  70  75 NE8       30.09S
FLORENCE       CLOUDY    77  69  76 E8        30.09R
DARLINGTON     PTSUNNY   79  68  69 E9        30.11R

....................REST OF NORTH CAROLINA......................

.........EASTERN NC.........

CITY           SKY/WX    TMP DP  RH WIND       PRES   REMARKS
CAPE HATTERAS  CLOUDY    82  64  54 E7        30.13S
JACKSONVILLE   CLOUDY    79  66  65 NE8       30.12S
MOREHEAD CITY  CLOUDY    81  68  64 E9        30.12S
KENANSVILLE    CLOUDY    78  67  68 E6        30.13S
NEW BERN       CLOUDY    82  69  64 E7        30.13S
ELIZABETH CITY CLOUDY    78  66  66 SE6       30.14S

.........CENTRAL NC.........

CITY           SKY/WX    TMP DP  RH WIND       PRES   REMARKS
RALEIGH DURHAM CLOUDY    75  67  76 S5        30.14R
ROCKY MOUNT    PTSUNNY   75  68  78 E3        30.14R
ROANOKE RAPIDS NOT AVBL
FAYETTEVILLE   CLOUDY    77  69  76 VRB3      30.11S
HOFFMAN        CLOUDY    75  70  84 VRB5      30.13S

.........WESTERN NC.........

CITY           SKY/WX    TMP DP  RH WIND       PRES   REMARKS
CHARLOTTE      CLOUDY    75  65  70 SE5       30.12S
GREENSBORO     PTSUNNY   73  65  75 CALM      30.14S
HICKORY        NOT AVBL
BOONE          NOT AVBL
ASHEVILLE      NOT AVBL

.....................REST OF SOUTH CAROLINA.....................

.........EASTERN SC.........

CITY           SKY/WX    TMP DP  RH WIND       PRES   REMARKS
CHARLESTON     PTSUNNY   85  72  65 E13       30.03S HX  91
BEAUFORT MCAS  PTSUNNY   79  74  84 E12       30.02S
HILTON HEAD    NOT AVBL

.........CENTRAL SC.........

CITY           SKY/WX    TMP DP  RH WIND       PRES   REMARKS
COLUMBIA       CLOUDY    78  67  68 E8        30.07R
ORANGEBURG     CLOUDY    75  69  81 E6        30.07R
SUMTER SHAW    CLOUDY    76  70  80 NE7       30.07R

.........WESTERN SC.........

CITY           SKY/WX    TMP DP  RH WIND       PRES   REMARKS
GREENVILLE     NOT AVBL
ROCK HILL      CLOUDY    75  67  76 SE6       30.12S
ANDERSON       LGT RAIN  69  67  93 NE7       30.10R
CLEMSON        NOT AVBL
GREENWOOD      CLOUDY    75  68  78 NE6       30.10S


...................COASTAL AND OFFSHORE REPORTS..................

................LOCAL PIERS AND NC RESERVE................


STATION/POSITION TIME  SKY/WX   TEMP    WIND        PRES    VSBY
                                AIR SEA DIR/SP/G
                 (UTC)          (F)     (DEG/KT/KT) (MB)    (MI)
JOHNY MRCER PIER 1400            80 83   90/ 14/ 16 1018.7R
NC RESRV MASNBRO NOT AVBL
OCEAN CREST PIER 1300            81 84   90/ 12/ 16 1017.7R
SPRINGMAID  PIER 1400            81 83   70/ 16/ 18 1018.3S


................COASTAL AND OFFSHORE BUOYS................


STATION/POSITION TIME  SKY/WX   TEMP    WIND        PRES    VSBY
                                AIR SEA DIR/SP/G
                 (UTC)          (F)     (DEG/KT/KT) (MB)    (MI)
DIMNDSHOAL 41025 1400                   VRB  8/ 10  1020.0R
WVE H/P(F/S)=  3/ 7 WND WVE H/P(F/S)=  2/ 4 SWL H/P/D(F/S/D)=  3/120/ 7

CAPE LOOKOUT     1300            80      80/ 13/ 14 1019.6R
ONSLOW BAY 41036 1300            80 81   90/ 14/ 16 1019.3R
5 WRITEBCH 41038 1300            77 81   90/ 14/ 17   N/A
MASONBORO  41110 1400               81                N/A
WVE H/P(F/S)=  4/ 7 WND WVE H/P(F/S)=  3/ 7

WILM HARBR 41108 NOT AVBL
27WRITEBCH 41037 1300            77 81   90/ 14/ 17 1018.6R
FRYING PAN 41013 NOT AVBL
SUNST NRSH 41024 1300            80      70/ 10/ 12 1018.3R
CAPRS NRSH 41029 1300            82     100/ 16/ 17   N/A
EDISTO     41004 1400            82 83   70/ 16/ 17 1016.3S
WVE H/P(F/S)=  3/ 6 WND WVE H/P(F/S)=  3/ 6 SWL H/P/D(F/S/D)=  2/ 8



..........OFFSHORE BUOYS BEYOND 100 NM OFFSHORE...........
.....IN A TRIANGLE---HAT TO BERMUDA TO BAHAMAS TO HAT.....


STATION/POSITION TIME  SKY/WX   TEMP    WIND        PRES    VSBY
                                AIR SEA DIR/SP/G
                 (UTC)          (F)     (DEG/KT/KT) (MB)    (MI)
150E HAT   41001 NOT AVBL
W BERMUDA  41048 1301            82 82  160/ 14/ 16 1020.5F
WVE H/P(F/S)=  5/ 6 WND WVE H/P(F/S)=  3/ 6 SWL H/P/D(F/S/D)=  3/ 20/14

ATLANTIC S 41049 1322            82 83  100/ 12/ 14 1021.2R
WVE H/P(F/S)=  3/ 6 WND WVE H/P(F/S)=  3/ 5 SWL H/P/D(F/S/D)=  2/110/ 6

E BAHAMAS  41046 1325            83 84  130/ 14/ 17 1017.8R
WVE H/P(F/S)=  5/ 7 WND WVE H/P(F/S)=  5/ 7 SWL H/P/D(F/S/D)=  2/110/ 9

NE BAHAMAS 41047 1257            83 84  140/ 14/ 16 1018.7F
WVE H/P(F/S)=  4/ 6 WND WVE H/P(F/S)=  3/ 5 SWL H/P/D(F/S/D)=  3/140/ 6

120E CANVRL41010 1400            83 84  180/  8/ 10 1016.4R
WVE H/P(F/S)=  2/ 4 WND WVE H/P(F/S)=  2/ 4 SWL H/P/D(F/S/D)=  2/180/ 4


END


USA.gov is the U.S. government's official web portal to all federal, state and local government web resources and services.